CW9873 Weather Reports


time (UTC)temp
F
wind
direction
speed
knots
gust
knots
rain 1hr
in
rain 24hr
in
rain mn
in
humidity
%
barometer
mb
20260507105623 49 320 0.9 3.5 0.04 0.47 0.25 93 1008.0
20260507105120 49 338 0.9 3.5 0.02 0.45 0.24 93 1007.8
20260507104617 49 304 0.9 3.5 0.02 0.45 0.24 93 1008.1
20260507104116 50 273 0.9 3.5 0.03 0.45 0.24 93 1007.6
20260507103616 50 315 0.9 2.6 0.02 0.44 0.23 93 1007.4
20260507103117 50 312 0.0 2.6 0.02 0.44 0.23 93 1007.0
20260507102115 50 346 0.0 1.7 0.02 0.44 0.23 93 1007.1
20260507101616 50 37 0.0 1.7 0.03 0.44 0.23 93 1007.0
20260507101115 50 37 0.0 2.6 0.03 0.44 0.23 93 1006.8
20260507100616 50 61 0.9 2.6 0.03 0.44 0.23 93 1006.6
20260507100115 51 347 0.0 2.6 0.03 0.44 0.23 93 1006.7
20260507095618 51 336 0.0 2.6 0.02 0.43 0.22 93 1007.0
20260507095113 51 338 0.0 2.6 0.03 0.43 0.22 93 1006.8
20260507094613 51 5 0.0 1.7 0.04 0.43 0.21 93 1006.9
20260507094340 51 311 0.9 1.7 0.04 0.42 0.21 93 1007.3
20260507093613 51 321 0.9 2.6 0.06 0.42 0.21 93 1007.1
20260507093113 51 312 0.0 2.6 0.06 0.42 0.21 93 1006.9
20260507092612 51 304 0.0 0.9 0.06 0.42 0.21 93 1007.0
20260507092112 51 304 0.0 1.7 0.07 0.42 0.21 93 1006.8
20260507091615 51 316 0.0 1.7 0.06 0.41 0.20 93 1006.8
20260507091111 51 336 0.0 1.7 0.06 0.41 0.20 93 1006.9
20260507090840 51 284 0.0 1.7 0.06 0.41 0.20 93 1006.7
20260507090340 51 279 0.0 1.7 0.07 0.41 0.20 93 1006.7
20260507085609 51 302 0.0 1.7 0.08 0.41 0.20 93 1006.5
20260507085108 51 0 0.0 2.6 0.07 0.40 0.19 93 1006.2
20260507084606 52 355 0.9 2.6 0.07 0.39 0.18 93 1006.5
20260507084107 52 324 0.9 1.7 0.11 0.38 0.16 93 1006.8
20260507083605 52 313 0.0 1.7 0.12 0.36 0.15 93 1006.8
20260507083102 52 59 0.9 1.7 0.13 0.36 0.15 93 1006.6
20260507082601 52 318 0.0 1.7 0.14 0.36 0.15 93 1006.4
20260507082333 52 309 0.0 2.6 0.13 0.35 0.14 93 1006.5
20260507081601 52 317 0.0 2.6 0.13 0.35 0.14 93 1006.5
20260507081104 52 306 0.9 2.6 0.13 0.35 0.14 93 1006.4
20260507080601 53 219 0.9 2.6 0.13 0.35 0.14 93 1006.6
20260507080104 53 0 0.9 2.6 0.12 0.34 0.13 93 1005.9
20260507075601 53 254 0.9 3.5 0.11 0.33 0.12 93 1006.9
20260507075333 53 302 0.9 3.5 0.11 0.33 0.12 93 1006.6
20260507074603 53 343 1.7 3.5 0.10 0.32 0.11 93 1006.3
20260507074102 54 263 1.7 4.3 0.05 0.27 0.06 93 1006.9
20260507073830 54 327 1.7 4.3 0.02 0.24 0.03 93 1006.9
20260507073108 55 338 0.9 3.5 0.01 0.23 0.02 93 1006.3
20260507072607 55 280 0.0 0.0 0.00 0.22 0.01 93 1005.9
20260507072104 55 280 0.0 0.0 0.00 0.22 0.01 93 1005.9
20260507071604 55 280 0.0 0.0 0.00 0.22 0.01 93 1005.7
20260507071103 55 280 0.0 0.0 0.00 0.22 0.01 93 1005.4
20260507070609 55 280 0.0 0.0 0.00 0.22 0.01 93 1005.5
20260507065602 55 280 0.0 0.0 0.01 0.22 0.01 93 1005.4
20260507065102 55 280 0.0 0.0 0.01 0.22 0.01 93 1005.3
20260507064100 55 284 0.0 0.0 0.01 0.22 0.01 93 1005.5
20260507063601 55 290 0.0 0.0 0.01 0.22 0.01 93 1005.4
20260507063102 55 290 0.0 0.9 0.01 0.22 0.01 93 1005.5
20260507062602 55 290 0.0 0.9 0.01 0.22 0.01 93 1005.5
20260507062100 55 290 0.0 0.9 0.01 0.22 0.01 93 1005.5
20260507061558 55 216 0.0 1.7 0.01 0.22 0.01 93 1005.6
20260507061056 55 216 0.0 1.7 0.01 0.22 0.01 93 1005.7
20260507060556 55 216 0.0 0.0 0.01 0.22 0.01 93 1005.5
20260507060055 55 216 0.0 0.9 0.01 0.22 0.01 93 1005.6
20260507055550 55 216 0.0 0.9 0.00 0.21 0.00 93 1005.7
20260507055050 55 216 0.0 1.7 0.00 0.21 0.00 93 1005.6
20260507054549 55 216 0.9 1.7 0.00 0.21 0.00 93 1005.9
20260507054049 55 241 0.0 1.7 0.00 0.21 0.00 93 1006.4
20260507053547 55 234 0.0 0.9 0.00 0.21 0.00 93 1006.4
20260507053045 55 226 0.0 1.7 0.00 0.21 0.00 93 1006.2
20260507052805 55 205 0.0 1.7 0.00 0.21 0.00 93 1006.4
20260507052041 55 237 0.0 0.9 0.00 0.21 0.00 93 1006.2
20260507051540 55 240 0.0 1.7 0.00 0.21 0.00 93 1006.4
20260507051040 55 251 0.9 2.6 0.00 0.21 0.00 93 1006.3
20260507050539 55 224 0.9 2.6 0.00 0.21 0.00 93 1006.5
20260507050034 55 215 0.9 3.5 0.00 0.21 0.00 93 1006.5
20260507045531 55 206 0.9 3.5 0.00 0.21 0.00 93 1006.6
20260507045252 55 223 0.9 3.5 0.00 0.21 0.00 93 1006.7
20260507044530 55 182 0.9 2.6 0.00 0.21 0.00 93 1006.6
20260507044027 55 151 0.9 3.5 0.00 0.21 0.00 93 1006.6
20260507043525 55 278 0.9 4.3 0.00 0.21 0.00 93 1006.5
20260507043025 55 186 1.7 4.3 0.00 0.21 0.00 93 1006.4
20260507042526 55 276 0.9 3.5 0.00 0.21 0.00 93 1006.5
20260507042024 55 229 1.7 5.2 0.00 0.21 0.00 93 1006.5
20260507041523 55 201 1.7 5.2 0.00 0.21 0.00 92 1006.6
20260507041252 55 180 1.7 5.2 0.00 0.21 0.00 92 1006.4
20260507040524 55 188 1.7 6.1 0.00 0.21 0.00 92 1006.5
20260507040022 55 209 0.9 6.1 0.00 0.21 0.00 92 1006.6
20260507035519 55 197 1.7 6.1 0.00 0.21 0.21 92 1006.6
20260507035245 55 267 1.7 6.1 0.00 0.21 0.21 92 1006.8
20260507034516 55 276 1.7 6.1 0.00 0.21 0.21 92 1006.8
20260507034014 55 220 0.9 6.1 0.00 0.21 0.21 92 1006.6
20260507033514 55 198 0.9 3.5 0.00 0.21 0.21 92 1006.7
20260507033015 55 184 0.9 3.5 0.00 0.21 0.21 92 1006.7
20260507032513 55 188 0.9 3.5 0.00 0.21 0.21 92 1006.8
20260507032014 55 194 0.9 7.0 0.00 0.21 0.21 93 1006.7
20260507031515 55 240 1.7 7.0 0.00 0.21 0.21 92 1006.8
20260507031005 55 212 2.6 6.1 0.00 0.21 0.21 92 1006.9
20260507030507 55 216 1.7 6.1 0.00 0.21 0.21 92 1006.7
20260507030230 55 202 1.7 5.2 0.00 0.21 0.21 92 1006.7
20260507025506 55 189 2.6 8.7 0.00 0.21 0.21 92 1006.6
20260507025005 55 185 2.6 8.7 0.00 0.21 0.21 92 1006.7
20260507024504 55 208 1.7 6.1 0.00 0.21 0.21 92 1006.8
20260507024224 55 190 2.6 5.2 0.00 0.21 0.21 92 1006.8
20260507023502 55 197 2.6 6.1 0.00 0.21 0.21 92 1007.0
20260507023001 55 180 2.6 7.8 0.00 0.21 0.21 92 1007.0
20260507022501 55 265 2.6 7.8 0.00 0.21 0.21 92 1007.0
20260507022229 55 239 2.6 6.1 0.00 0.21 0.21 92 1007.0
20260507021733 55 210 2.6 6.1 0.00 0.21 0.21 92 1007.1
20260507021001 55 227 2.6 8.7 0.00 0.21 0.21 92 1007.0
20260507020501 55 204 2.6 8.7 0.00 0.21 0.21 92 1007.1
20260507020227 55 232 2.6 7.0 0.00 0.21 0.21 92 1006.9
20260507015501 55 227 1.7 6.1 0.00 0.21 0.21 92 1006.9
20260507015001 55 223 1.7 7.0 0.00 0.21 0.21 92 1006.9
20260507014503 55 227 2.6 7.0 0.00 0.21 0.21 92 1006.9
20260507014001 55 203 2.6 6.1 0.00 0.21 0.21 92 1007.1
20260507013502 55 201 2.6 7.8 0.00 0.21 0.21 92 1007.2
20260507012959 55 172 2.6 7.8 0.00 0.21 0.21 92 1007.2
20260507012503 55 205 2.6 6.1 0.00 0.21 0.21 92 1007.3
20260507012002 55 190 1.7 4.3 0.00 0.21 0.21 92 1007.2
20260507011456 55 175 1.7 6.1 0.00 0.21 0.21 92 1007.3
20260507010956 55 264 2.6 7.8 0.00 0.21 0.21 92 1007.3
20260507010458 55 224 2.6 7.8 0.00 0.21 0.21 92 1007.5
20260507010226 55 177 2.6 8.7 0.00 0.21 0.21 92 1007.5
20260507005502 55 171 2.6 8.7 0.00 0.21 0.21 92 1007.5
20260507004958 55 217 1.7 7.0 0.00 0.21 0.21 92 1007.6
20260507004456 55 231 2.6 7.8 0.00 0.21 0.21 92 1007.6
20260507003955 55 198 2.6 7.8 0.00 0.21 0.21 92 1007.5
20260507003454 55 217 3.5 8.7 0.00 0.21 0.21 92 1007.5
20260507002953 55 222 3.5 8.7 0.00 0.21 0.21 92 1007.4
20260507002454 55 208 3.5 7.0 0.00 0.21 0.21 92 1007.3
20260507002225 55 207 3.5 7.0 0.00 0.21 0.21 92 1007.2
20260507001453 55 202 3.5 7.8 0.00 0.21 0.21 92 1007.3
20260507000954 55 190 3.5 8.7 0.01 0.21 0.21 92 1007.2
20260507000725 55 235 4.3 11.3 0.01 0.21 0.21 92 1007.2
20260506235952 55 165 4.3 11.3 0.01 0.21 0.21 92 1007.2
20260506235453 55 199 3.5 11.3 0.01 0.21 0.21 92 1007.3
20260506234949 55 234 3.5 10.4 0.01 0.21 0.21 92 1007.3
20260506234451 55 201 4.3 11.3 0.01 0.21 0.21 92 1007.3
20260506233949 55 217 4.3 12.2 0.02 0.21 0.21 92 1007.3
20260506233449 55 173 3.5 12.2 0.02 0.21 0.21 92 1007.2
20260506232948 55 211 4.3 12.2 0.02 0.21 0.21 92 1007.2
20260506232450 55 188 4.3 12.2 0.02 0.21 0.21 92 1007.2
20260506231947 55 251 4.3 9.6 0.04 0.21 0.21 92 1007.2
20260506231446 55 192 4.3 12.2 0.05 0.21 0.21 91 1007.2
20260506230946 55 217 5.2 13.9 0.05 0.20 0.20 92 1007.2
20260506230447 55 208 4.3 13.9 0.06 0.20 0.20 91 1007.2
20260506225946 55 213 4.3 11.3 0.07 0.20 0.20 91 1007.2
20260506225445 55 190 4.3 11.3 0.08 0.20 0.20 91 1007.2
20260506224944 55 227 4.3 14.8 0.09 0.20 0.20 91 1007.2
20260506224710 55 254 4.3 14.8 0.09 0.20 0.20 91 1007.0
20260506223943 55 190 3.5 12.2 0.09 0.19 0.19 91 1007.1
20260506223707 55 192 4.3 9.6 0.09 0.19 0.19 91 1006.9
20260506222941 55 175 5.2 7.8 0.10 0.19 0.19 91 1007.1
20260506222440 55 188 5.2 10.4 0.10 0.19 0.18 91 1007.1
20260506221940 55 210 4.3 10.4 0.08 0.17 0.17 91 1007.1
20260506221440 55 173 3.5 9.6 0.08 0.16 0.16 91 1007.1
20260506220941 55 248 4.3 12.2 0.07 0.15 0.15 91 1007.2
20260506220441 55 165 4.3 13.0 0.07 0.14 0.14 91 1007.2
20260506215941 55 227 4.3 13.9 0.06 0.13 0.13 91 1007.3
20260506215718 55 219 4.3 13.9 0.05 0.12 0.12 91 1007.3
20260506214942 55 192 4.3 13.0 0.04 0.11 0.11 91 1007.3
20260506214442 55 235 3.5 10.4 0.04 0.11 0.11 90 1007.5
20260506214211 55 240 4.3 13.0 0.03 0.10 0.10 90 1007.5
20260506213717 56 175 4.3 13.0 0.03 0.10 0.09 90 1007.6
20260506212936 56 207 5.2 12.2 0.03 0.09 0.09 90 1007.6
20260506212714 56 201 5.2 12.2 0.03 0.09 0.09 90 1007.6
20260506211934 56 270 4.3 12.2 0.03 0.09 0.09 90 1007.6
20260506211433 56 210 4.3 12.2 0.02 0.08 0.08 90 1007.8
20260506210934 56 186 4.3 10.4 0.02 0.08 0.08 90 1007.7
20260506210434 56 229 4.3 12.2 0.02 0.07 0.07 90 1007.8
20260506205437 56 175 6.1 14.8 0.02 0.07 0.07 90 1007.8
20260506204432 56 186 6.1 17.4 0.02 0.07 0.07 90 1008.0
20260506203930 56 240 5.2 17.4 0.02 0.07 0.07 89 1008.0
20260506203430 56 219 5.2 16.5 0.02 0.07 0.06 89 1008.1
20260506202932 56 220 4.3 16.5 0.02 0.06 0.06 89 1008.1
20260506202431 56 225 4.3 9.6 0.03 0.06 0.06 89 1008.1
20260506201929 56 154 4.3 14.8 0.04 0.06 0.06 89 1008.1
20260506201429 56 102 5.2 14.8 0.05 0.06 0.06 89 1008.2
20260506200929 57 244 4.3 13.0 0.06 0.06 0.06 89 1008.2
20260506200430 57 199 4.3 12.2 0.05 0.05 0.05 89 1008.2
20260506195931 57 182 5.2 17.4 0.05 0.05 0.05 89 1008.4
20260506195428 57 252 5.2 17.4 0.05 0.05 0.05 89 1008.2
20260506194925 57 227 5.2 13.0 0.05 0.05 0.05 89 1008.3
20260506194416 57 170 5.2 13.9 0.05 0.05 0.05 88 1008.4
20260506193914 57 160 4.3 13.9 0.05 0.05 0.05 89 1008.3
20260506193410 57 125 4.3 10.4 0.05 0.05 0.05 88 1008.4
20260506192923 57 219 5.2 16.5 0.04 0.04 0.04 88 1008.5
20260506192142 57 227 3.5 10.4 0.02 0.02 0.02 86 1008.6
20260506190913 58 196 4.3 12.2 0.00 0.00 0.00 85 1008.6
20260506190411 59 236 5.2 13.9 0.00 0.00 0.00 84 1008.9
20260506185410 60 147 6.1 13.9 0.00 0.00 0.00 82 1008.9
20260506185143 60 103 5.2 13.9 0.00 0.00 0.00 80 1008.9
20260506184410 60 219 5.2 13.0 0.00 0.00 0.00 80 1009.0
20260506184139 60 129 7.0 16.5 0.00 0.00 0.00 80 1009.0
20260506183412 61 212 6.1 16.5 0.00 0.00 0.00 80 1009.0
20260506182908 61 177 5.2 13.0 0.00 0.00 0.00 80 1009.0
20260506182410 61 168 6.1 13.0 0.00 0.00 0.00 79 1009.0
20260506182143 61 201 6.1 13.9 0.00 0.00 0.00 80 1009.2
20260506181409 62 188 6.1 15.6 0.00 0.00 0.00 79 1009.2
20260506181138 62 262 6.1 16.5 0.00 0.00 0.00 79 1009.4
20260506180408 62 200 7.0 20.9 0.00 0.00 0.00 79 1009.4
20260506175908 62 205 7.8 20.9 0.00 0.00 0.00 79 1009.3
20260506175408 62 165 6.1 14.8 0.00 0.00 0.00 79 1009.4
20260506174911 62 204 4.3 13.9 0.00 0.00 0.00 78 1009.4
20260506174408 62 149 5.2 18.2 0.00 0.00 0.00 78 1009.6
20260506173908 62 231 7.8 18.2 0.00 0.00 0.00 79 1009.7
20260506173409 62 229 7.8 17.4 0.00 0.00 0.00 78 1009.7
20260506172908 63 278 7.0 17.4 0.00 0.00 0.00 78 1009.8
20260506172410 63 205 7.0 17.4 0.00 0.00 0.00 77 1010.0
20260506171907 64 213 6.1 17.4 0.00 0.00 0.00 77 1010.2
20260506171409 64 196 6.1 20.0 0.00 0.00 0.00 77 1010.0
20260506170910 64 219 7.8 20.0 0.00 0.00 0.00 77 1009.9
20260506170409 64 188 7.0 19.1 0.00 0.00 0.00 76 1009.8
20260506165908 65 193 7.0 17.4 0.00 0.00 0.00 76 1009.9
20260506165410 64 151 7.8 17.4 0.00 0.00 0.00 77 1010.0
20260506164408 65 222 6.1 16.5 0.00 0.00 0.00 75 1010.1
20260506163908 64 171 6.1 16.5 0.00 0.00 0.00 77 1010.2
20260506163404 63 180 6.1 13.0 0.00 0.00 0.00 78 1010.4
20260506162906 63 242 5.2 18.2 0.00 0.00 0.00 78 1010.6
20260506162417 63 203 4.3 18.2 0.00 0.00 0.00 78 1010.4
20260506161905 63 233 5.2 11.3 0.00 0.00 0.00 78 1010.5
20260506161404 62 196 5.2 12.2 0.00 0.00 0.00 79 1010.7
20260506160904 62 209 4.3 15.6 0.00 0.00 0.00 78 1010.8
20260506160405 63 209 6.1 18.2 0.00 0.00 0.00 78 1010.7
20260506155902 63 113 5.2 18.2 0.00 0.00 0.00 77 1010.8
20260506155405 64 228 5.2 20.9 0.00 0.00 0.00 76 1011.0
20260506154408 65 196 6.1 18.2 0.00 0.00 0.00 74 1010.8
20260506153904 67 213 5.2 14.8 0.00 0.00 0.00 73 1010.7
20260506153403 67 205 4.3 13.9 0.00 0.00 0.00 72 1010.9
20260506152903 67 157 5.2 13.9 0.00 0.00 0.00 72 1010.9
20260506152402 66 138 6.1 13.9 0.00 0.00 0.00 74 1010.9
20260506151902 67 199 5.2 20.0 0.00 0.00 0.00 73 1010.9
20260506151401 67 205 6.1 20.0 0.00 0.00 0.00 74 1011.0
20260506150902 66 138 5.2 17.4 0.00 0.00 0.00 76 1011.0
20260506150400 66 206 5.2 14.8 0.00 0.00 0.00 74 1011.0
20260506145902 66 198 5.2 14.8 0.00 0.00 0.00 74 1011.1
20260506145401 65 207 5.2 19.1 0.00 0.00 0.00 76 1011.2
20260506144901 65 203 5.2 19.1 0.00 0.00 0.00 75 1011.2
20260506144405 65 222 4.3 17.4 0.00 0.00 0.00 75 1011.1
20260506144130 65 186 4.3 17.4 0.00 0.00 0.00 76 1010.9
20260506143402 65 228 4.3 15.6 0.00 0.00 0.00 76 1010.9
20260506142902 66 236 4.3 15.6 0.00 0.00 0.00 75 1011.0
20260506142402 65 240 5.2 17.4 0.00 0.00 0.00 76 1011.0
20260506141902 63 198 6.1 17.4 0.00 0.00 0.00 79 1011.2
20260506141401 63 244 4.3 13.9 0.00 0.00 0.00 77 1011.1
20260506140902 64 173 4.3 15.6 0.00 0.00 0.00 77 1011.1
20260506140358 64 173 6.1 15.6 0.00 0.00 0.00 78 1011.0
20260506140124 63 88 5.2 11.3 0.00 0.00 0.00 79 1010.8
20260506135357 63 199 4.3 11.3 0.00 0.00 0.00 78 1010.7
20260506135130 63 166 5.2 13.0 0.00 0.00 0.00 78 1010.7
20260506134357 64 218 5.2 13.9 0.00 0.00 0.00 78 1011.0
20260506134121 64 229 4.3 13.9 0.00 0.00 0.00 77 1011.1
20260506133627 65 215 4.3 14.8 0.00 0.00 0.00 76 1011.0
20260506132857 64 209 5.2 14.8 0.00 0.00 0.00 78 1011.1
20260506132357 64 211 4.3 11.3 0.00 0.00 0.00 79 1011.1
20260506131859 63 209 4.3 17.4 0.00 0.00 0.00 79 1011.2
20260506131356 62 207 4.3 17.4 0.00 0.00 0.00 80 1011.3
20260506130854 62 180 4.3 13.9 0.00 0.00 0.00 80 1011.3
20260506130353 61 232 5.2 13.9 0.00 0.00 0.00 81 1011.4
20260506125855 61 198 6.1 14.8 0.00 0.00 0.00 81 1011.3
20260506125354 60 202 4.3 14.8 0.00 0.00 0.00 81 1011.4
20260506124854 60 167 3.5 13.0 0.00 0.00 0.00 81 1011.3
20260506124354 61 160 3.5 11.3 0.00 0.00 0.00 82 1011.3
20260506123854 60 178 4.3 13.0 0.00 0.00 0.00 82 1011.3
20260506123352 60 232 5.2 13.0 0.00 0.00 0.00 83 1011.2
20260506123114 60 212 5.2 12.2 0.00 0.00 0.00 83 1011.3
20260506122614 60 177 5.2 13.0 0.00 0.00 0.00 83 1011.3
20260506121850 59 215 4.3 13.0 0.00 0.00 0.00 83 1011.4
20260506121349 59 286 3.5 13.0 0.00 0.00 0.00 84 1011.4
20260506120849 59 194 4.3 13.0 0.00 0.00 0.00 84 1011.4
20260506120349 59 234 5.2 13.0 0.00 0.00 0.00 84 1011.5
20260506115851 59 180 4.3 10.4 0.00 0.00 0.00 84 1011.5
20260506115356 58 202 3.5 10.4 0.00 0.00 0.00 84 1011.5
20260506114348 58 217 2.6 7.0 0.00 0.00 0.00 85 1011.6
20260506113847 58 207 3.5 12.2 0.00 0.00 0.00 85 1011.6
20260506113348 57 199 4.3 12.2 0.00 0.00 0.00 85 1011.7
20260506112847 57 195 3.5 9.6 0.00 0.00 0.00 86 1011.8
20260506112347 57 173 3.5 11.3 0.00 0.00 0.00 86 1011.7
20260506111847 57 187 3.5 11.3 0.00 0.00 0.00 86 1011.7
20260506111347 57 185 3.5 9.6 0.00 0.00 0.00 86 1011.8
20260506110847 57 168 3.5 10.4 0.00 0.00 0.00 86 1011.7
20260506110348 57 226 4.3 11.3 0.00 0.00 0.00 86 1011.7
20260506105848 57 186 4.3 13.9 0.00 0.00 0.00 86 1011.6